Terug naar catalogus

USA 405

ActiefMilitairVLEO
NORAD 61026·PAYLOAD·🇺🇸 United States

Gelanceerd Sep 6, 2024 vanaf Vandenberg Space Force Base

Loading…

Volgende Passages (komende 24 uur)

TLE

VerouderdSource: Mike McCants

Epoch: Sep 9, 2026, 20:02 UTC

1 61026U 24160F   26252.83477627 0.00000000  00000-0  00000-0 0    02
2 61026  70.0198 144.3998 0003000  96.1132 263.8867 14.96713650    07

Volg USA 405 in realtime met AllMySat

Download on the App Store